Location: Rodanthe
(35.5920°N, 75.4670°W)
Time: 18:17:34
(UTC-04:00)

Daily predictions for brighter satellites

Satellite Brightness Start Highest point End
(mag) Time Altitude Azimuth Time Altitude Azimuth Time Altitude Azimuth
ERBS 2.4 20:32:06 10° NW 20:35:35 83° SW 20:39:01 10° SE
Cosmos 1624 Rocket 4.2 20:33:07 10° SSW 20:38:23 82° WNW 20:43:43 10° NNE
H-2A R/B 3.8 20:36:19 10° ESE 20:39:03 17° ENE 20:41:45 10° NNE
Okean 1-7 4.2 20:40:23 10° NNW 20:44:30 45° W 20:48:38 10° SSW
Cosmos 1606 4.1 20:43:40 10° NNE 20:46:47 22° ENE 20:49:47 10° SE
ERS-1 Rocket 3.6 20:43:41 10° SE 20:48:20 39° ENE 20:53:01 10° N
ALOS 2.5 20:43:54 10° S 20:48:34 78° WSW 20:53:16 10° NNW
Cosmos 1892 3.0 20:45:46 10° SSW 20:49:34 70° W 20:53:26 10° N
Meteor 1-27 Rocket 4.5 20:45:32 10° NNE 20:50:31 33° ENE 20:55:26 10° SE
Cosmos 407 Rocket 3.9 20:48:15 10° N 20:53:22 49° ENE 20:58:29 10° SE
Cosmos 2074 Rocket 4.2 20:53:04 10° S 20:59:21 80° W 21:05:39 10° N
H-2A R/B 3.4 20:58:56 10° S 21:02:33 54° W 21:06:13 10° NNW
Cosmos 1452 Rocket 3.5 20:57:26 10° S 21:02:36 62° ESE 21:07:49 10° NNE
Cosmos 1782 2.8 21:02:06 10° N 21:06:08 71° E 21:10:10 10° SSE
Cosmos 1674 Rocket 3.5 21:03:46 10° N 21:08:14 76° E 21:12:37 10° S
Cosmos 1190 Rocket 4.0 21:03:49 10° NNW 21:09:02 87° ENE 21:14:14 10° SSE
Cosmos 1610 Rocket 4.5 21:03:09 10° S 21:09:17 83° E 21:15:32 10° N
USA 186 3.2 21:07:08 10° SSW 21:10:03 38° W 21:13:07 10° NNW
Okean 2 Rocket 4.1 21:07:52 15° SE 21:10:33 26° E 21:14:14 10° NNE
ATLAS 5 CENTAUR R/B 2.9 21:04:35 10° NW 21:10:38 60° WSW 21:17:01 10° SSE
Atlas Centaur 2 2.1 21:10:25 10° WSW 21:13:38 30° S 21:15:19 20° SE
OAO 3 Rocket 3.6 21:12:02 10° SW 21:16:42 42° SSE 21:20:22 16° E
CENTAUR R/B 3.8 21:09:55 10° NW 21:17:38 52° WSW 21:25:36 10° S
Cosmos 1939 Rocket 2.9 21:16:52 17° SSE 21:19:38 59° ENE 21:23:30 10° N
Nadezhda 3 Rocket 4.2 21:13:24 10° N 21:19:40 58° E 21:25:06 14° SSE
Cosmos 1782 Rocket 3.9 21:17:37 13° SSE 21:21:15 44° E 21:25:31 10° NNE
Cosmos 1184 Rocket 3.2 21:19:36 20° SSE 21:21:29 42° E 21:24:41 10° NNE
Sich 1 Rocket 3.8 21:17:31 10° S 21:22:05 77° W 21:26:41 10° N
YAOGAN 6 4.1 21:21:31 18° E 21:22:12 19° ENE 21:24:45 10° NNE
Meteor 2-6 Rocket 4.4 21:16:46 10° N 21:22:43 83° W 21:28:29 10° S
ISS -1.6 21:19:56 10° WSW 21:22:58 36° NW 21:26:01 10° NNE
Cosmos 1242 Rocket 4.0 21:20:17 10° NNE 21:23:09 21° ENE 21:23:49 20° E
Cosmos 1408 2.6 21:20:42 13° S 21:23:49 58° E 21:27:24 10° NNE
Meteosat 1 Rocket2 4.5 21:20:35 10° WSW 21:25:50 45° S 21:30:54 20° ESE
Cosmos 1238 Rocket 3.1 21:23:09 10° N 21:26:27 43° E 21:28:10 26° SE
SPOT 5 3.5 21:25:17 21° SE 21:28:34 47° ENE 21:33:41 10° N
COSMOS 2406 4.3 21:26:55 10° NW 21:32:15 41° WSW 21:37:33 10° S
Cosmos 1833 Rocket 4.4 21:29:42 10° NNE 21:33:28 18° NE 21:35:46 14° E
Cosmos 2278 Rocket 2.2 21:28:41 10° SSW 21:34:21 85° WNW 21:40:04 10° NNE
Cosmos 1825 2.1 21:30:53 12° S 21:34:26 86° E 21:38:16 10° N
Cosmos 1844 Rocket 4.2 21:29:43 10° SW 21:34:58 39° WNW 21:40:14 10° N
Cosmos 1975 Rocket 3.3 21:35:03 10° N 21:39:16 49° E 21:40:51 32° SE
Cosmos 676 Rocket 4.0 21:34:41 10° NNW 21:39:55 83° WSW 21:43:24 22° SSE
Cosmos 1174 3.1 21:37:42 10° NNW 21:40:48 73° WSW 21:41:30 47° S
BREEZE-M DEB (TANK) 3.2 21:40:26 10° WNW 21:42:36 40° SW 21:43:48 29° SSE
Cosmos 2341 Rocket 4.0 21:37:03 10° S 21:43:22 86° E 21:49:40 10° N
Cosmos 1954 Rocket 3.9 21:38:40 10° NNW 21:43:55 82° ENE 21:46:47 27° SSE
Cosmos 1908 Rocket 4.4 21:41:40 10° SSW 21:45:56 51° W 21:50:16 10° N
Intercosmos 25 3.2 21:47:58 47° SE 21:48:31 53° E 21:51:38 10° NNE
Cosmos 1378 Rocket 3.6 21:45:38 10° N 21:49:56 74° W 21:52:24 25° S
COS B Rocket 3.4 21:46:07 10° N 21:50:01 65° W 21:51:57 25° SSW
SL-8 Rocket 4.0 21:49:49 23° SSE 21:53:48 60° E 21:59:57 10° NNE
Meteor 1-14 Rocket 4.3 21:53:52 29° SSE 21:56:40 57° E 22:02:09 10° NNE
Cosmos 2082 Rocket 3.1 21:52:05 10° N 21:57:17 35° ENE 21:58:57 29° E
Cosmos 1741 Rocket 4.3 21:53:48 10° N 21:58:54 51° ENE 22:00:22 39° ESE
Timation 2 Rocket 3.9 21:55:59 10° NNW 22:01:57 66° ENE 22:04:13 38° SE
Cosmos 1023 Rocket 4.3 21:58:32 10° NNW 22:03:40 83° ENE 22:05:25 42° SSE
USA 245 3.4 22:05:04 48° ENE 22:05:04 48° ENE 22:08:37 10° N
GPS 2-05 Rocket1 2.8 22:03:40 10° W 22:07:23 88° N 22:07:26 86° NE
Cosmos 2297 3.7 22:04:56 10° SSW 22:10:37 85° WNW 22:16:24 10° NNE
Envisat 3.9 22:09:02 19° SSW 22:12:23 43° W 22:17:12 10° NNW
H-2A R/B 3.3 22:12:33 21° SSW 22:14:46 36° W 22:18:41 10° NNW
Cosmos 2151 Rocket 3.5 22:16:23 64° ESE 22:16:40 66° E 22:21:10 10° NNE
NOAA 11 4.2 22:15:50 48° SE 22:17:13 66° ENE 22:22:41 10° N
SEDSat Delta rocket 4.1 22:14:16 10° WSW 22:16:42 28° SW 22:16:42 28° SW
CZ-3C R/B 3.6 22:04:39 10° WSW 22:22:26 28° SSW 22:23:56 26° S
COSMOS 2487 3.9 22:19:47 10° NW 22:23:00 31° W 22:23:26 30° WSW
CZ-4 R/B 3.6 22:18:37 10° NNE 22:23:16 71° ESE 22:23:30 69° SE
Cosmos 864 Rocket 4.4 22:21:57 44° SSE 22:23:54 71° E 22:30:03 10° N
OAO 1 Rocket 4.3 22:18:57 10° WSW 22:24:16 80° S 22:25:17 58° E
Cosmos 614 Rocket 3.8 22:20:58 10° NNW 22:26:04 86° ENE 22:26:48 66° SSE
Cosmos 2366 rocket 3.9 22:32:20 40° S 22:34:49 88° W 22:41:11 10° N
Cosmos 1140 Rocket 4.3 22:33:26 10° NNW 22:38:19 44° WSW 22:39:35 37° SW
Landsat 7 3.9 22:40:33 64° NE 22:40:33 64° NE 22:45:00 10° N
CZ-4C R/B 4.3 22:41:21 41° NNE 22:41:21 41° NNE 22:44:18 10° N
Cosmos 2369 Rocket 4.3 22:45:04 13° ENE 22:45:04 13° ENE 22:46:01 10° NE
USA 234 3.2 22:35:39 10° NE 22:42:05 59° SE 22:43:02 53° SSE
H-2A R/B 2.2 22:42:14 58° E 22:42:20 58° ENE 22:47:34 10° N
ARGOS 3.3 22:46:30 55° SW 22:47:22 64° WSW 22:52:42 10° NNW
CZ-4B R/B 4.3 22:43:36 10° N 22:48:16 45° WNW 22:50:13 29° SW
Timation 1 Rocket 4.3 22:46:57 46° SSW 22:48:54 84° WNW 22:54:57 10° NNE
SL-08 RB Rocket 3.9 22:49:27 66° W 22:49:27 66° W 22:53:57 10° NNW
Terra 2.2 22:56:47 55° NNE 22:56:47 55° NNE 23:00:43 10° N
SPOT 1/Viking Rocket 4.4 22:57:07 39° WSW 22:57:58 42° W 23:02:54 10° NNW
OAO 3 Rocket 4.2 22:55:09 10° W 22:58:14 38° WSW 22:58:14 38° WSW
Meteor 1-20 Rocket 4.2 23:01:01 70° WSW 23:01:28 75° W 23:07:01 10° N
Spot 4 4.5 23:11:30 51° NNE 23:11:30 51° NNE 23:15:15 10° N
Cosmos 1833 Rocket 3.0 23:12:16 10° NNW 23:17:28 58° W 23:17:28 58° W
Lacrosse 5 3.1 23:25:04 34° NNE 23:25:04 34° NNE 23:27:58 10° NE
USA 229 DEB 4.0 23:26:25 10° NW 23:33:21 57° WSW 23:33:32 56° WSW
USA 229 4.0 23:26:30 10° NW 23:33:28 57° WSW 23:33:38 57° WSW
Iridium 4 Rocket 4.3 23:30:28 10° N 23:35:10 54° NNE 23:35:10 54° NNE
ASTEX 1 4.4 23:34:27 10° N 23:38:12 45° NW 23:38:12 45° NW
Cosmos 2082 Rocket 3.6 23:36:25 10° NW 23:40:49 28° W 23:40:49 28° W
Cosmos 1821 Rocket 4.2 23:52:03 67° NW 23:52:03 67° NW 23:57:38 10° N
